Content
SEND FEEDBACK

Daily
Averages
Monthly
Summary
Kuwait

AL KUWAYT, KUWAIT


Home > Middle East > Kuwait
Elevation: 36 feet     Latitude: 29 24N     Longitude: 048 00E

WEATHER
 
SELECT A DAY
Number of Records: 220,303;   Date Range: 7/1/96 - 7/8/14
 
SHARE

PRINT THIS DATA

[ ← Previous Day ]
WEATHER ALMANAC - FEBRUARY 13, 2013
[ Next Day → ]
[ °C ]   °F
Weather ElementAverageHighLow
Temperature63.7 °F71 °F (3:00 pm)57.2 °F (6:00 am)
Dewpoint36.6 °F47 °F (3:00 am)23 °F (4:00 pm)
Humidity38.6 %63 % (4:00 am)9 % (3:00 pm)
Barometer30.09 in30.15 in (9:00 am)30.04 in (1:00 am)
Wind Speed16.6 mph23 mph (12:00 pm)
Weather ElementAverage
Visibility6 mi
Wind DirectionNNW (345.2 °)

Weather ElementTotal
Precipitation---
Heating Degree Days0.9 (Base 65)
Growing Degree Days14.1 (Base 50)
Averaged from 27 records on February 13, 2013
WEATHER CONDITIONS BREAKOUT
WIND DIRECTION BREAKOUT
WEATHER BY HOUR - FEBRUARY 13, 2013
[ °C ]   °F
Local TimeTemperatureDewpointHumidityBarometerVisibilityWind DirectionWind SpeedGust SpeedPrecipitationEventsConditions
1:00 AM62.6 °F46.4 °F55 %30.04 inNorth (350°)17.3 mphClear
2:00 AM60.8 °F46.4 °F59 %30.04 inNorth (350°)18.4 mphClear
3:00 AM60.0 °F47.0 °F51 %30.05 in6.0 miNorth (350°)18.4 mph
3:00 AM60.8 °F46.4 °F59 %30.04 inNorth (350°)18.4 mphClear
4:00 AM59.0 °F46.4 °F63 %30.04 inNNW (340°)16.1 mphClear
5:00 AM59.0 °F44.6 °F59 %30.06 inNNW (340°)16.1 mphClear
6:00 AM57.2 °F44.6 °F63 %30.09 inNorth (350°)12.7 mphClear
7:00 AM57.2 °F42.8 °F59 %30.09 inNNW (330°)10.4 mphClear
8:00 AM59.0 °F44.6 °F59 %30.12 inNorth (350°)13.8 mphClear
9:00 AM61.0 °F43.0 °F41 %30.15 in6.0 miNorth (350°)18.4 mph
9:00 AM60.8 °F42.8 °F52 %30.15 inNorth (350°)18.4 mphClear
10:00 AM62.6 °F39.2 °F42 %30.15 inNorth (350°)19.6 mphClear
11:00 AM66.2 °F35.6 °F32 %30.12 inNorth (350°)17.3 mphClear
12:00 PM68.0 °F28.4 °F23 %30.12 inNNW (340°)23.0 mphClear
1:00 PM69.8 °F28.4 °F21 %30.09 inNorth (350°)20.7 mphClear
2:00 PM69.8 °F26.6 °F20 %30.09 inNorth (360°)19.6 mphClear
3:00 PM71.0 °F24.0 °F9 %30.08 in6.0 miNorth (350°)18.4 mph
3:00 PM69.8 °F24.8 °F18 %30.06 inNorth (350°)18.4 mphClear
4:00 PM69.8 °F23.0 °F17 %30.06 inNorth (350°)18.4 mphClear
5:00 PM69.8 °F26.6 °F20 %30.06 inNNW (340°)17.3 mphClear
6:00 PM66.2 °F32.0 °F28 %30.09 inNNW (330°)16.1 mphClear
7:00 PM66.2 °F30.2 °F26 %30.09 inNNW (330°)16.1 mphClear
8:00 PM64.4 °F33.8 °F32 %30.09 inNNW (340°)12.7 mphClear
9:00 PM63.0 °F35.0 °F23 %30.12 in6.0 miNNW (340°)12.7 mph
9:00 PM62.6 °F33.8 °F34 %30.12 inNNW (340°)12.7 mphClear
10:00 PM62.6 °F33.8 °F34 %30.12 inNNW (340°)13.8 mphClear
11:00 PM60.8 °F37.4 °F42 %30.12 inNorth (350°)13.8 mphClear
Hourly data recorded from OKBK, located miles away from Al Kuwayt, Kuwait







STORIES FROM OUR PARTNERS